Location: Bacea
(45.9500°N, 22.6667°E)
Time: 00:01:29
(UTC+00:00)

Cosmos 489 Rocket - Pass Details

Date: 16 October 2021
Orbit: 953 x 983 km, 74.0° (Epoch: 26 November)

Event Time Altitude Azimuth Distance (km) Brightness Sun altitude
Rises 17:15:00 0° 339° (NNW) 3,642 7.8 -17.0°
Reaches altitude 10° 17:17:33 10° 342° (NNW) 2,691 7.1 -17.5°
Maximum altitude 17:23:45 72° 66° (ENE) 1,002 4.4 -18.5°
Enters shadow 17:29:05 14° 150° (SSE) 2,367 6.2 -19.4°
